Weather History for Dickinson, ND

Change the Weather History Date:

Friday, August 2, 2013

  Actual Average Record
Temperature  
Mean Temperature 66 °F 71 °F  
Max Temperature 75 °F 86 °F 102 °F (1904)
Min Temperature 56 °F 56 °F 37 °F (1907)
Degree Days  
Heating Degree Days 0 1  
Month to date heating degree days 0 2  
Since 1 June heating degree days 156 173  
Since 1 July heating degree days 32 36  
Cooling Degree Days 1 6  
Month to date cooling degree days 1 12  
Year to date cooling degree days 144 241  
Since 1 June cooling degree days 135 231  
Growing Degree Days 13 (Base 50)    
Moisture  
Dew Point 52 °F    
Average Humidity 68    
Maximum Humidity 86    
Minimum Humidity 49    
Precipitation  
Precipitation 0.00 in 0.05 in 1.04 in (1996)
Month to date precipitation T 0.11  
Year to date precipitation 11.50 10.86  
Sea Level Pressure  
Sea Level Pressure 30.02 in    
Wind  
Wind Speed 7 mph (East)    
Max Wind Speed 14 mph    
Max Gust Speed 20 mph    
Visibility 10 miles    
Events      
T = Trace of Precipitation, MM = Missing Value Source: NWS Daily Summary

Daily Weather History Graph

Daily Weather History Graph

Search for Another Location

Airport:

Trip Planner

Search our weather history database for the weather conditions in past years. The results will help you decide how hot, cold, wet, or windy it might be!

Date:

Astronomy

Aug. 02, 2013 Rise Set
Actual Time 5:32 AM MDT 8:21 PM MDT
Civil Twilight 4:57 AM MDT 8:56 PM MDT
Nautical Twilight 4:12 AM MDT 9:40 PM MDT
Astronomical Twilight 3:19 AM MDT 10:33 PM MDT
Moon 1:52 AM MDT (8/2) 5:23 PM MDT (8/2)
Length of Visible Light 15h 58m
Length of Day
14h 48m
Waning Crescent, 15% of the Moon is Illuminated
Aug 2
Waning Crescent
Aug 6
New
Aug 14
First Quarter
Aug 20
Full
Aug 28
Last Quarter

Hourly Weather History & Observations

Time (MDT) Temp. Dew Point Humidity Pressure Visibility Wind Dir Wind Speed Gust Speed Precip Events Conditions
12:56 AM 62.1 °F 52.0 °F 70% 29.97 in 10.0 mi ENE 4.6 mph - N/A   Overcast
1:56 AM 59.0 °F 52.0 °F 78% 29.99 in 10.0 mi Calm Calm - N/A   Partly Cloudy
2:56 AM 57.9 °F 52.0 °F 81% 29.94 in 10.0 mi ENE 6.9 mph - N/A   Scattered Clouds
3:56 AM 55.9 °F 52.0 °F 87% 29.95 in 10.0 mi East 5.8 mph - N/A   Mostly Cloudy
4:56 AM 57.0 °F 52.0 °F 83% 29.97 in 10.0 mi ESE 4.6 mph - N/A   Overcast
5:56 AM 57.9 °F 52.0 °F 81% 29.99 in 10.0 mi East 3.5 mph - N/A   Overcast
6:56 AM 57.9 °F 52.0 °F 81% 30.00 in 10.0 mi ENE 5.8 mph - N/A   Overcast
7:56 AM 59.0 °F 52.0 °F 78% 30.01 in 10.0 mi ENE 3.5 mph - N/A   Overcast
8:56 AM 63.0 °F 53.1 °F 70% 29.99 in 10.0 mi East 6.9 mph - N/A   Partly Cloudy
9:56 AM 62.1 °F 53.1 °F 72% 30.04 in 10.0 mi SE 3.5 mph - N/A   Overcast
10:56 AM 64.0 °F 54.0 °F 70% 30.01 in 10.0 mi ESE 9.2 mph - N/A   Overcast
11:56 AM 70.0 °F 54.0 °F 57% 29.99 in 10.0 mi SE 11.5 mph - N/A   Partly Cloudy
12:56 PM 71.1 °F 53.1 °F 53% 30.00 in 10.0 mi ESE 12.7 mph - N/A   Overcast
1:56 PM 69.1 °F 52.0 °F 54% 30.04 in 10.0 mi ESE 8.1 mph - N/A   Overcast
2:56 PM 71.1 °F 52.0 °F 51% 30.03 in 10.0 mi ESE 8.1 mph - N/A   Overcast
3:56 PM 71.1 °F 51.1 °F 49% 30.02 in 10.0 mi East 8.1 mph - N/A   Overcast
4:56 PM 70.0 °F 51.1 °F 51% 30.01 in 10.0 mi ESE 8.1 mph - N/A   Mostly Cloudy
5:56 PM 71.1 °F 52.0 °F 51% 30.01 in 10.0 mi ESE 10.4 mph - N/A   Overcast
6:56 PM 69.1 °F 51.1 °F 53% 30.02 in 10.0 mi East 9.2 mph - N/A   Overcast
7:56 PM 64.9 °F 52.0 °F 63% 30.04 in 10.0 mi ESE 6.9 mph - N/A   Mostly Cloudy
8:56 PM 60.1 °F 53.1 °F 78% 30.06 in 10.0 mi East 4.6 mph - N/A   Partly Cloudy
9:56 PM 59.0 °F 51.1 °F 75% 30.08 in 10.0 mi East 8.1 mph - N/A   Scattered Clouds
10:56 PM 57.9 °F 50.0 °F 75% 30.11 in 10.0 mi East 5.8 mph - N/A   Overcast
11:56 PM 60.1 °F 51.1 °F 72% 30.12 in 10.0 mi ENE 3.5 mph - N/A   Overcast